Regional Weather Roundup
Issued by NWS Newport/Morehead, NC

Current Version | Previous Version | Graphics & Text | Print | Product List | Glossary Off
Versions: 1 2 3 4 5 6 7 8 9 10 11 12 13 14 15 16 17 18 19 20 21 22 23 24 25 26 27 28 29 30 31 32 33 34 35 36 37 38 39 40 41 42 43 44 45 46 47 48 49 50

000
ASUS42 KMHX 251525
RWRMHX
WEATHER ROUNDUP FOR EASTERN NORTH CAROLINA
NATIONAL WEATHER SERVICE NEWPORT/MOREHEAD CITY NC
1100 AM EDT THU AUG 25 2016

NOTE: "FAIR" INDICATES FEW OR NO CLOUDS BELOW 12,000 FEET
WITH NO SIGNIFICANT WEATHER AND/OR OBSTRUCTIONS TO VISIBILITY

NCZ015>017-031-032-045>047-102-103-251600-
NORTH COAST

CITY           SKY/WX    TMP DP  RH WIND       PRES   REMARKS
EDENTON        SUNNY     83  67  58 S7        30.18S
ELIZABETH CITY MOSUNNY   81  66  60 CALM      30.17F
KITTY HAWK     CLOUDY    85  72  64 W5        30.17S
MANTEO         MOSUNNY   80  65  60 SW3       30.18F

$$

NCZ045>047-081-094-103-104-251600-
CENTRAL COAST

CITY           SKY/WX    TMP DP  RH WIND       PRES   REMARKS
FRISCO         SUNNY     85  68  56 VRB5      30.18S

$$

NCZ095-097-098-100-101-251600-
SOUTHERN COAST

CITY           SKY/WX    TMP DP  RH WIND       PRES   REMARKS
BEAUFORT       SUNNY     84  68  58 N6        30.18S
CEDAR ISLAND   NOT AVBL
JACKSONVILLE   MOSUNNY   82  67  60 CALM      30.17F
PINEY ISLAND   NOT AVBL
WILMINGTON     PTSUNNY   82  69  64 VRB5      30.17S


$$

NCZ011>013-027>030-043-044-078>080-089-090>093-098-251600-
COASTAL PLAIN

CITY           SKY/WX    TMP DP  RH WIND       PRES   REMARKS
AHOSKIE        SUNNY     80  69  69 CALM      30.18R
CLINTON        SUNNY     82  72  72 CALM      30.19S
ELIZABETHTOWN  CLOUDY    83  70  65 CALM      30.19R
GOLDSBORO      PTSUNNY   84  72  65 NW5       30.16F
GREENVILLE     SUNNY     82  68  61 SW6       30.19S
HAVELOCK       MOSUNNY   84  65  52 SE3       30.19S
KENANSVILLE    NOT AVBL
KINSTON        SUNNY     84  70  61 CALM      30.18F
NEW BERN       SUNNY     83  67  58 SE3       30.19S
RICHLANDS      PTSUNNY   82  69  64 VRB5      30.18F
ROCKY MOUNT    SUNNY     80  71  74 S6        30.19S
WASHINGTON     SUNNY     82  66  59 CALM      30.18S
WHITEVILLE     MOSUNNY   83  71  68 CALM      30.18S

$$

AMZ130-135-150-152-154-156-158-170-250-252-270-ANZ085-086-088-633-658-670-251600-
MARINE OBSERVATIONS

STATION/POSITION TIME  TEMP    WIND        PRES    WAVE   SWELL
                       AIR SEA DIR/SP/G            HT/PER HT/PER
                 (UTC) (F)     (DEG/KT/KT) (MB)    (FT/S) (FT/S)
CHESAPEAKE LIGHT NOT AVBL
64 E VA BEACH    1450   79 82  210/  2/  4 1021.8    3/10   3/10
DUCK             1500   81 78  110/  4/  5 1021.4
2 E DUCK         1411      78                N/A     3/10   2/11
OREGON INLET     1500   80 80   70/  4/  7 1021.9
13E OREGON INLT  1500      79                N/A     3/10   3/10
HATTERAS CG      1500   81 79   30/  5/  9 1021.7
DIAMOND BUOY     1450   81 84   90/  6/  8 1021.9    3/10   3/10
CAPE LOOKOUT     1500   81      30/ 10/ 12 1021.6
BEAUFORT LAB     1500   82 79   30/  3/  8 1021.3
30 SE NEW RVR IN 1508   81 84   60/ 10/ 14 1021.6
30 SE NEW RVR IN 1425      84                N/A     3/ 6
27 SE WRIGHTSVLE 1508   82 83   60/ 10/ 14 1021.7
5 SE WRIGHTSVLE  1508   81 82   90/  8/ 12 1022.9
225 S CAPE HAT   1450   81 84   50/ 14/ 17 1019.4    5/ 7   3/ 9
41 SE CHARLESTON 1450   83 84   50/ 10/ 14 1020.4    3/11   2/11

$$




USA.gov is the U.S. government's official web portal to all federal, state and local government web resources and services.